Probability
0 0 0 0 0 0 0 0 0 0 0 2 7 13 22 30 34 36 34 29 27 26 22 19 17 15 12 9 7 5 2 1 1 3 4 4 5 5 4 3 3 4 4 5
0 0 0 0 0 0 0 0 0 0 1 3 6 11 18 25 29 32 29 25 25 26 22 18 17 15 13 9 6 4 2 0 0 2 3 3 3 4 3 3 2 2 2 3
0 0 0 0 0 0 0 0 0 0 1 2 4 8 13 18 22 24 24 24 25 25 21 18 17 15 11 8 6 4 3 1 0 0 1 1 1 2 2 1 1 0 0 1
0 0 0 0 0 0 0 0 0 0 1 1 2 4 9 14 17 20 23 24 25 23 19 17 15 13 10 8 6 4 3 2 1 0 0 0 0 1 1 0 0 0 0 0
0 0 0 0 0 0 0 0 0 0 0 0 0 1 6 13 16 18 22 23 22 19 16 14 13 12 10 8 6 4 3 3 1 0 0 0 0 0 1 1 1 0 0 0
0 0 0 0 0 0 0 0 0 0 0 0 0 0 4 10 14 17 20 20 19 16 14 13 13 12 11 9 6 5 4 3 2 1 0 0 0 1 3 4 3 1 0 0
0 0 0 0 0 0 0 0 0 0 0 0 0 0 2 5 10 14 18 19 18 15 15 16 15 14 12 9 6 5 4 3 3 2 1 0 0 1 4 5 4 2 1 0
0 0 0 0 0 0 0 0 0 0 0 0 0 0 1 3 7 12 16 19 18 16 16 15 14 12 11 9 6 5 4 3 3 3 2 1 0 1 4 5 5 3 2 1
0 0 0 0 0 0 0 0 0 0 0 0 0 0 0 2 7 11 14 16 16 15 14 12 10 10 8 7 5 3 3 2 2 2 2 2 2 2 3 4 4 3 2 1
0 0 0 0 0 0 0 0 0 0 0 0 0 0 1 3 7 11 13 13 12 12 11 9 7 7 6 4 3 1 1 1 1 1 1 2 2 3 3 3 3 3 2 1
0 0 0 0 0 0 0 0 0 0 0 0 0 0 1 3 7 10 10 9 8 9 9 7 6 5 4 3 2 1 0 0 0 0 0 1 1 2 3 3 3 3 2 1
0 0 0 0 0 0 0 0 0 0 0 0 0 1 2 4 7 7 7 6 6 7 7 6 5 5 4 3 2 1 0 0 0 0 0 0 0 1 3 3 3 2 1 0
0 0 0 0 0 0 0 0 0 0 0 0 1 2 4 6 6 4 3 4 5 6 6 5 4 4 3 3 1 0 0 0 0 0 0 0 0 1 2 2 1 1 0 0
0 0 0 0 0 0 0 0 0 0 0 0 1 2 4 6 5 3 3 4 4 4 5 4 3 3 3 2 1 0 0 0 0 0 0 0 0 0 1 1 0 0 0 0
0 0 0 0 0 0 0 0 0 0 0 0 0 1 3 4 4 5 5 4 4 3 4 3 3 3 2 1 0 0 0 0 0 0 0 0 0 0 0 0 0 0 0 0
0 0 0 0 0 0 0 0 0 1 0 0 0 1 1 3 4 5 5 4 3 3 3 3 3 2 1 0 0 0 0 0 0 0 0 0 0 0 0 0 0 0 0 0
0 0 0 0 0 0 0 0 0 0 0 0 0 1 1 1 3 4 3 3 4 3 3 2 2 1 0 0 0 0 0 0 0 0 0 0 0 0 0 0 0 0 0 0
0 0 0 0 0 0 0 0 0 0 0 0 1 2 1 2 3 3 3 3 3 2 1 1 1 0 0 0 0 0 0 0 0 0 0 0 0 0 0 0 0 0 0 0
0 0 0 0 0 0 0 0 0 1 1 2 2 3 3 3 3 3 3 2 2 1 0 0 0 0 0 0 0 0 0 0 0 0 0 0 0 0 0 0 0 0 0 0
0 0 0 0 0 0 0 0 0 1 2 3 3 3 3 3 3 2 1 1 0 0 0 0 0 0 0 0 0 0 0 0 0 0 0 0 0 0 0 0 0 0 0 0
0 0 0 0 0 0 0 0 0 0 1 2 2 1 1 2 3 2 0 0 0 0 0 0 0 0 0 0 0 0 0 0 0 0 0 0 0 0 0 0 0 0 0 0
0 0 0 0 0 0 0 0 0 0 0 1 1 0 0 1 2 1 0 0 0 0 0 0 0 0 0 0 0 0 0 0 0 0 0 0 0 0 0 0 0 0 0 0
0 0 0 0 0 0 0 0 0 0 0 0 0 0 0 0 1 1 0 0 0 0 0 0 0 0 0 0 0 0 0 0 0 0 0 0 0 0 0 0 0 0 0 0
0 0 0 0 0 0 0 0 0 0 0 0 0 0 0 0 0 0 0 0 0 0 0 0 0 0 0 0 0 0 0 0 0 0 0 0 0 0 0 0 0 0 0 0
0 0 0 0 0 0 0 0 0 0 0 0 0 0 0 0 0 0 0 0 0 0 0 0 0 0 0 0 0 0 0 0 0 0 0 0 0 0 0 0 0 0 0 0
0 0 0 0 0 0 0 0 0 0 0 0 0 0 0 0 0 0 0 0 0 0 0 0 0 0 0 0 0 0 0 0 0 0 0 0 0 0 0 0 0 0 0 0
Wind_Speed
1 2 3 7 6 6 4 3 4 6 4 5 8 11 13 13 12 12 11 11 10 9 7 7 6 7 7 6 6 5 4 3 3 2 2 2 2 2 2 2 3 3 3 3
3 4 10 6 6 4 4 5 6 5 3 6 7 6 9 12 14 14 14 12 11 9 7 6 6 5 6 6 5 4 4 3 2 2 1 1 2 2 1 2 3 4 4 4
6 8 6 6 7 6 6 6 5 3 1 5 8 2 4 5 6 8 10 11 11 12 11 8 7 6 5 5 5 4 4 3 3 2 2 3 3 2 2 3 2 3 3 3
6 9 6 6 6 5 6 6 5 4 4 2 5 4 4 6 6 8 9 10 11 10 9 8 7 6 6 5 5 4 4 4 3 3 3 4 3 2 1 1 1 2 4 4
7 5 5 6 8 5 6 4 2 2 4 3 1 4 3 5 6 8 10 11 11 10 9 8 7 7 6 5 5 4 5 4 4 4 4 4 3 2 1 2 3 3 3 4
9 6 5 7 5 4 3 3 5 5 5 1 3 3 3 3 7 9 10 11 11 12 10 8 6 6 5 5 5 5 5 4 4 4 4 4 4 4 4 3 3 2 2 3
5 5 4 2 1 3 4 6 4 5 4 3 2 3 3 4 5 11 13 12 11 11 11 9 8 7 6 6 5 5 5 4 4 4 4 4 4 4 4 3 2 2 2 2
2 5 3 1 4 3 2 8 7 4 3 3 2 1 2 1 2 5 9 11 11 10 9 9 8 7 7 6 5 5 5 4 4 4 3 3 4 3 2 2 2 2 1 1
3 5 4 1 2 6 2 2 7 7 2 1 2 1 1 3 6 7 10 11 10 10 10 9 8 6 6 6 5 5 5 4 3 3 3 3 3 3 3 2 2 1 1 1
3 2 5 3 3 3 5 6 5 6 4 1 3 3 4 4 6 7 9 10 9 9 9 8 6 6 5 5 5 4 5 4 3 3 3 3 3 3 3 3 3 2 2 2
3 2 4 3 1 1 2 3 5 4 5 5 3 5 4 8 9 11 10 9 10 9 9 8 6 6 6 6 5 4 4 4 4 3 3 3 2 3 3 2 2 2 2 3
2 4 1 4 4 3 3 4 6 5 3 4 4 5 2 6 7 10 10 9 9 8 8 7 7 7 6 6 4 4 4 4 3 3 3 2 2 2 2 2 2 3 3 3
4 5 2 5 6 4 2 0 2 5 4 4 4 4 1 6 7 7 9 10 9 9 8 7 7 7 6 5 4 4 3 3 3 3 3 2 2 1 1 2 2 3 3 3
5 5 6 6 6 3 1 2 1 4 3 3 5 6 4 6 7 7 8 9 9 8 8 7 7 6 6 5 5 4 3 3 3 3 3 2 1 1 1 2 2 3 3 3
6 3 2 3 2 1 1 1 1 2 5 6 6 8 9 9 9 10 10 9 9 8 8 8 8 6 6 5 4 4 4 3 3 3 3 2 1 1 2 2 3 3 3 3
4 3 1 2 1 2 3 3 0 2 3 5 7 3 4 6 7 9 10 11 10 9 9 9 8 8 7 7 6 5 4 3 3 3 2 2 1 1 2 2 2 3 3 3
3 4 3 2 3 3 2 3 2 3 3 6 5 5 8 7 8 9 9 10 10 10 9 9 9 8 7 6 6 6 5 4 3 3 2 2 2 1 1 2 2 2 2 2
5 4 3 1 3 1 3 2 5 7 3 2 5 8 9 8 7 6 6 8 9 9 8 8 7 7 6 5 5 5 4 4 3 3 2 2 2 2 2 2 1 1 1 1
5 6 3 3 2 1 1 1 2 5 2 2 7 8 7 8 6 2 3 6 7 7 7 7 6 6 6 6 6 5 4 4 3 3 3 3 3 3 2 1 1 0 0 1
5 5 5 3 3 2 3 2 2 7 1 1 6 9 9 8 4 4 4 6 7 7 6 6 6 6 6 5 6 5 4 3 3 3 3 2 3 3 2 2 1 1 0 1
3 3 3 2 2 2 3 1 2 3 5 4 6 8 8 5 5 5 7 7 7 7 7 7 7 6 5 5 5 5 4 3 3 3 2 2 2 3 2 1 1 1 0 1
5 3 2 3 2 5 2 2 3 5 3 5 5 6 6 5 7 8 8 8 8 7 7 7 6 5 4 5 6 5 3 3 3 3 3 2 2 2 1 1 1 0 0 1
3 5 5 5 5 4 1 3 3 6 7 4 5 6 8 8 8 8 7 8 7 7 6 6 7 6 4 4 5 5 3 3 3 3 2 2 1 0 1 1 1 1 0 0
0 3 5 3 1 2 3 4 4 6 6 6 7 8 8 8 9 8 8 7 6 6 6 6 6 6 4 4 5 5 4 4 4 3 2 1 1 1 1 0 1 1 1 1
2 3 4 3 3 4 3 4 6 7 8 8 7 7 8 10 9 8 7 6 6 5 5 6 6 6 5 4 4 4 4 4 4 3 2 1 1 2 1 1 2 2 3 4
1 5 6 5 6 5 4 4 7 8 8 8 8 7 7 8 9 8 7 6 6 6 5 5 6 5 5 5 4 4 4 4 4 2 2 2 2 1 1 1 2 4 4 5
Wind_Direction
260 78 247 239 211 204 223 228 239 244 222 147 149 155 168 166 161 162 163 162 160 150 139 132 126 120 110 98 94 88 82 65 74 78 80 78 70 62 52 50 51 48 42 41
17 267 244 249 265 257 251 249 255 273 230 143 142 162 173 173 175 173 170 168 160 144 138 136 128 121 115 113 103 92 87 75 68 78 100 114 112 88 75 49 37 36 39 36
209 246 247 242 259 259 260 223 229 216 79 92 115 110 179 177 159 162 163 165 160 158 156 150 136 128 119 111 107 96 79 67 58 65 82 81 69 57 40 35 31 19 34 39
246 252 254 243 244 220 258 237 208 199 135 184 143 173 227 172 157 166 165 165 164 156 150 146 139 132 125 117 109 98 84 70 57 63 92 102 110 108 98 75 53 30 35 38
256 248 236 234 233 206 228 234 179 180 136 93 55 131 254 156 168 181 175 166 159 149 149 147 142 134 123 118 113 102 86 69 52 54 78 89 87 97 92 72 61 38 21 25
250 255 218 221 236 212 201 50 32 46 73 79 246 155 247 209 197 181 179 167 159 149 143 136 129 122 117 116 109 102 91 73 59 60 69 87 93 90 86 70 56 34 16 11
306 289 267 229 302 331 83 84 36 7 20 253 265 131 231 238 196 176 174 166 156 149 147 146 144 139 135 129 119 107 97 81 69 68 65 77 92 92 95 89 68 54 30 10
259 288 274 216 173 187 170 135 152 183 212 271 346 161 265 273 136 137 147 146 145 147 147 148 150 149 143 133 124 114 104 91 77 74 70 71 80 89 90 85 85 72 45 345
200 260 290 258 180 147 134 141 158 133 131 85 293 251 296 80 96 116 130 139 147 149 147 148 149 149 145 133 125 120 112 98 82 81 81 75 75 82 81 69 64 57 22 7
162 265 297 302 43 45 141 146 97 111 138 229 287 256 218 177 148 140 141 146 145 143 143 140 140 142 134 123 117 113 109 103 92 83 82 85 70 75 79 71 55 38 20 21
122 132 316 9 110 209 74 77 102 114 143 155 226 258 227 186 167 156 159 154 150 153 150 145 140 134 126 119 118 116 109 105 95 84 78 75 63 60 63 57 39 33 27 27
139 119 288 272 255 185 143 163 144 146 199 169 179 256 307 149 147 148 151 148 146 149 146 143 139 136 133 128 126 124 119 118 117 107 95 85 70 56 48 33 23 30 31 31
130 105 56 346 342 2 40 215 150 138 130 158 170 238 69 119 127 141 145 145 144 142 141 138 140 142 141 138 137 134 130 135 130 122 110 92 81 68 37 22 27 35 46 43
113 111 152 190 222 242 273 283 180 127 148 184 194 179 168 149 142 141 140 142 147 149 151 150 150 150 150 148 146 141 134 140 136 130 123 108 100 87 52 35 36 45 55 55
94 126 193 220 234 214 300 283 210 147 169 171 187 174 185 175 164 154 147 146 150 157 164 163 158 154 154 150 148 143 139 137 135 130 127 130 123 87 71 54 40 41 51 62
87 118 71 356 343 51 18 345 121 93 103 124 129 155 168 154 144 148 154 158 163 169 172 165 161 158 161 159 156 150 144 143 135 135 149 150 126 99 75 59 52 54 52 49
97 111 99 301 319 53 11 327 114 114 121 147 170 181 152 149 159 165 168 170 171 171 167 165 166 164 164 161 155 155 156 148 142 148 153 147 133 119 99 97 77 66 51 47
131 117 123 117 43 113 248 300 107 110 95 119 127 142 155 159 157 162 166 168 168 163 161 163 159 156 153 150 148 151 150 150 154 157 157 153 140 136 123 98 87 56 46 41
129 129 115 111 121 168 244 291 147 120 72 113 132 136 131 119 97 104 163 152 159 156 153 156 155 151 148 149 150 145 149 155 160 168 169 166 155 149 142 138 170 243 27 353
73 92 109 119 134 201 241 309 111 98 78 189 139 141 143 131 141 203 165 140 138 138 140 145 142 136 144 154 145 142 155 158 173 177 173 165 155 152 160 184 212 236 225 276
69 60 99 128 149 259 264 254 79 128 218 190 151 148 151 166 179 159 139 130 134 137 141 140 138 140 151 151 139 142 150 170 180 166 144 135 144 158 171 186 220 224 297 348
155 141 156 140 159 242 276 104 152 195 152 136 141 148 146 132 121 126 129 131 135 135 138 138 137 143 149 146 140 142 164 184 161 139 128 131 154 180 162 168 263 291 355 353
139 173 164 167 200 229 170 140 150 133 128 135 142 143 134 130 134 134 135 138 140 141 142 140 140 145 153 156 152 157 181 162 137 130 143 162 162 205 183 191 245 295 336 309
110 118 107 99 134 122 97 99 100 116 126 130 134 133 132 134 139 136 139 140 141 141 141 139 140 146 161 169 165 170 174 154 139 143 163 172 162 258 282 269 214 206 235 242
181 104 97 107 143 95 76 106 114 109 110 113 117 124 133 136 141 143 145 148 148 147 147 147 151 158 169 171 170 174 167 150 144 155 177 205 223 223 249 269 250 226 231 216
225 147 147 185 191 152 164 149 126 120 124 130 126 123 132 138 142 140 145 149 148 148 148 150 155 161 170 171 174 180 174 160 154 168 200 217 226 230 229 248 295 286 256 257